Powrót do katalogu

COSMOS 1823 DEB

AktywnyLEO
NORAD 18806·DEBRIS·🇷🇺 Russia

Wystrzelony Feb 20, 1987 z Plesetsk Cosmodrome

Loading…

Następne Przeloty (najbliższe 24 godziny)

TLE

ŚwieżeSource: Space-Track

Epoka: Sep 14, 2026, 09:40 UTC

1 18806U 87020AS  26257.40322443  .00000103  00000-0  94548-3 0  9991
2 18806  73.4802  53.8843 0083063 220.3514 165.8260 12.35587057743811

Śledź COSMOS 1823 DEB w czasie rzeczywistym z AllMySat

Download on the App Store